TAP1923 LPPR-LPPT

Flight info

Callsign TAP1923
Flight time N/A
Altitude 23000
Route MANIK DCT ABRIL DCT XAMAX XAMAX2A/02
Aircraft A20N/M-SDE2E3FGHIRWXY/LB1

Departure

Time N/A
Airport Francisco de Sá Carneiro Airport (LPPR)

Arrival

Time 2026-05-07 20:00
Airport Lisbon Humberto Delgado Airport (LPPT)
Time Latitude Longitude Altitude Speed Heading
2026-05-07 19:50 38.38180 -9.39388 7940 ft 245 kts 127°
2026-05-07 19:51 38.37565 -9.38215 7943 ft 245 kts 127°
2026-05-07 19:51 38.36649 -9.36376 7943 ft 247 kts 117°
2026-05-07 19:51 38.36273 -9.34250 7799 ft 250 kts 90°
2026-05-07 19:51 38.36743 -9.32115 7472 ft 256 kts 60°
2026-05-07 19:52 38.37986 -9.30514 7112 ft 257 kts 29°
2026-05-07 19:52 38.39649 -9.29745 6791 ft 256 kts 11°
2026-05-07 19:52 38.41395 -9.29323 6499 ft 254 kts
2026-05-07 19:52 38.43128 -9.28928 6204 ft 252 kts
2026-05-07 19:53 38.44835 -9.28472 5915 ft 250 kts 11°
2026-05-07 19:53 38.46523 -9.27956 5621 ft 248 kts 12°
2026-05-07 19:53 38.48188 -9.27409 5319 ft 246 kts 13°
2026-05-07 19:53 38.49835 -9.26856 5040 ft 244 kts 12°
2026-05-07 19:54 38.51469 -9.26311 4780 ft 241 kts 12°
2026-05-07 19:54 38.53083 -9.25763 4527 ft 239 kts 12°
2026-05-07 19:54 38.54678 -9.25227 4266 ft 236 kts 12°
2026-05-07 19:54 38.56232 -9.24703 4042 ft 232 kts 12°
2026-05-07 19:55 38.57789 -9.24161 4002 ft 227 kts 13°
2026-05-07 19:55 38.59267 -9.23566 3998 ft 226 kts 17°
2026-05-07 19:55 38.60759 -9.22841 3798 ft 227 kts 19°
2026-05-07 19:55 38.62228 -9.22076 3480 ft 229 kts 20°
2026-05-07 19:56 38.63680 -9.21306 3170 ft 229 kts 19°
2026-05-07 19:56 38.65138 -9.20527 2834 ft 223 kts 20°
2026-05-07 19:56 38.66088 -9.20023 2630 ft 213 kts 19°
2026-05-07 19:56 38.67778 -9.19116 2310 ft 184 kts 19°
2026-05-07 19:57 38.68902 -9.18521 2058 ft 164 kts 19°
2026-05-07 19:57 38.69891 -9.17987 1835 ft 145 kts 17°
2026-05-07 19:57 38.70500 -9.17667 1714 ft 136 kts 17°
2026-05-07 19:57 38.71646 -9.17057 1461 ft 135 kts 18°
2026-05-07 19:58 38.72225 -9.16749 1341 ft 134 kts 18°
2026-05-07 19:58 38.72942 -9.16364 1180 ft 136 kts 19°
2026-05-07 19:58 38.73759 -9.15927 998 ft 134 kts 19°
2026-05-07 19:58 38.74630 -9.15464 813 ft 135 kts 18°
2026-05-07 19:59 38.75509 -9.14971 641 ft 141 kts 18°
2026-05-07 19:59 38.76383 -9.14529 437 ft 136 kts 21°
2026-05-07 19:59 38.77263 -9.14057 364 ft 128 kts 20°
2026-05-07 19:59 38.77907 -9.13716 366 ft 71 kts 22°
2026-05-07 20:00 38.78201 -9.13554 366 ft 23 kts 24°
2026-05-07 20:00 38.78215 -9.13478 366 ft 5 kts 162°
2026-05-07 20:00 38.78145 -9.13449 362 ft 15 kts 166°
2026-05-07 20:00 38.78074 -9.13430 365 ft 5 kts 168°
2026-05-07 20:01 38.78072 -9.13430 365 ft 0 kts 168°
2026-05-07 20:02 38.78042 -9.13423 360 ft 9 kts 169°
2026-05-07 20:02 38.77944 -9.13397 352 ft 20 kts 169°
2026-05-07 20:02 38.77803 -9.13358 350 ft 23 kts 167°
2026-05-07 20:02 38.77644 -9.13322 337 ft 21 kts 176°
2026-05-07 20:03 38.77496 -9.13295 334 ft 23 kts 168°
2026-05-07 20:03 38.77351 -9.13261 336 ft 21 kts 171°
2026-05-07 20:03 38.77207 -9.13226 333 ft 20 kts 167°
2026-05-07 20:03 38.77153 -9.13177 334 ft 8 kts 95°
2026-05-07 20:04 38.77157 -9.13143 334 ft 3 kts 78°
2026-05-07 20:04 38.77160 -9.13126 336 ft 1 kts 78°
2026-05-07 20:04 38.77160 -9.13124 335 ft 0 kts 79°